Home   Weather   Antofagasta   Past weeks

Flag for Chile Past Weather in Antofagasta, Chile — Yesterday and Last 2 Weeks

Now
59 °F

Passing clouds.


Feels Like: 59 °F
Forecast: 65 / 73 °F
Wind: 1 mph from North

Location: Antofagasta Airport

Current Time: Apr 23, 2017 at 5:15:59 am

Latest Report: Apr 23, 2017 at 5:00 am


Visibility: N/A

Pressure: 29.89 "Hg

Humidity: 94%

Dew Point: 57 °F

Location of AntofagastaLocation

Past Weather in Antofagasta — Graph

°F

Antofagasta Temperature Yesterday

Maximum temperature yesterday: 68 °F (at 12:00 pm)
Minimum temperature yesterday: 59 °F (at 4:00 am)
Average temperature yesterday: 63 °F

High & Low Weather Summary for the Past Weeks

 TemperatureHumidityPressure
High72 °F (Apr 17, 1:00 pm)94% (Apr 9, 4:00 am)30.09 "Hg (Apr 9, 4:00 am)
Low57 °F (Apr 10, 5:00 am)53% (Apr 17, 1:00 pm)29.86 "Hg (Apr 12, 6:00 pm)
Average64 °F79%29.94 "Hg
* Reported Apr 8 4:00 am — Apr 23 4:00 am, Antofagasta, Weather by CustomWeather, © 2017

Note: Actual official high and low records may vary slightly from our data, if they occured in-between our weather recording intervals... More about our weather records

Advertising

Antofagasta Weather History for the Previous 24 Hours

Scroll right to see more
 ConditionsComfort  
Time TempWeatherWind HumidityBarometerVisibility
4:00 am
Sun, Apr 23
61 °FPassing clouds.1 mph88%29.89 "HgN/A
3:00 am61 °FPassing clouds.7 mph88%29.89 "HgN/A
2:00 am61 °FPassing clouds.6 mph88%29.92 "HgN/A
1:00 am61 °FPassing clouds.9 mph88%29.92 "HgN/A
12:00 am61 °FPassing clouds.5 mph88%29.92 "HgN/A
11:00 pm
Sat, Apr 22
61 °FPassing clouds.6 mph88%29.95 "HgN/A
10:00 pm63 °FPassing clouds.8 mph83%29.95 "HgN/A
9:00 pm63 °FPassing clouds.10 mph83%29.95 "HgN/A
8:00 pm64 °FPassing clouds.10 mph78%29.92 "HgN/A
7:00 pm64 °FScattered clouds.13 mph78%29.92 "HgN/A
6:00 pm66 °FPassing clouds.12 mph73%29.92 "HgN/A
5:00 pm68 °FPassing clouds.10 mph69%29.92 "HgN/A
3:00 pm68 °FPassing clouds.10 mph69%29.95 "HgN/A
2:00 pm68 °FPassing clouds.12 mph69%29.95 "HgN/A
1:00 pm68 °FPassing clouds.10 mph69%29.98 "HgN/A
12:00 pm68 °FScattered clouds.3 mph73%29.98 "HgN/A
11:00 am64 °FScattered clouds.3 mph83%30.01 "HgN/A
10:00 am64 °FPartly sunny.5 mph83%30.01 "HgN/A
9:00 am63 °FPartly sunny.2 mph83%30.01 "HgN/A
8:00 am63 °FBroken clouds.5 mph83%29.98 "HgN/A
7:00 am59 °FPassing clouds.9 mph88%29.98 "HgN/A
6:00 am59 °FClear.5 mph88%29.95 "Hg10 mi
5:00 am59 °FClear.8 mph82%29.98 "Hg10 mi
Weather by CustomWeather, © 2017

See weather overviewHow to use our weather pages